Weather History for Kokomo, IN

Change the Weather History Date:

Tuesday, April 23, 2013

  Actual Average (KGUS) Record (KGUS)
Temperature  
Mean Temperature 56 °F -  
Max Temperature 66 °F 62 °F 78 °F (2007)
Min Temperature 46 °F 43 °F 30 °F (2005)
Degree Days  
Heating Degree Days 9    
Growing Degree Days 6 (Base 50)    
Moisture  
Dew Point 48 °F    
Average Humidity 77    
Maximum Humidity 100    
Minimum Humidity 52    
Precipitation  
Precipitation 1.29 in - - ()
Sea Level Pressure  
Sea Level Pressure 29.95 in    
Wind  
Wind Speed 11 mph (South)    
Max Wind Speed 23 mph    
Max Gust Speed 37 mph    
Visibility 8 miles    
Events      
Averages and records for this station are not official NWS values.
T = Trace of Precipitation, MM = Missing Value Source: NWS Daily Summary

Daily Weather History Graph

Daily Weather History Graph

Search for Another Location

Airport:

Trip Planner

Search our weather history database for the weather conditions in past years. The results will help you decide how hot, cold, wet, or windy it might be!

Date:

Astronomy

Apr. 23, 2013 Rise Set
Actual Time 5:53 AM CDT 7:32 PM CDT
Civil Twilight 5:24 AM CDT 8:01 PM CDT
Nautical Twilight 4:49 AM CDT 8:36 PM CDT
Astronomical Twilight 4:12 AM CDT 9:13 PM CDT
Moon 5:25 PM CDT (4/23) 4:21 AM CDT (4/23)
Length of Visible Light 14h 36m
Length of Day
13h 38m
Waxing Gibbous, 94% of the Moon is Illuminated
Apr 23
Waxing Gibbous
Apr 25
Full
May 2
Last Quarter
May 9
New
May 17
First Quarter

Hourly Weather History & Observations

Time (CDT) Temp. Windchill Dew Point Humidity Pressure Visibility Wind Dir Wind Speed Gust Speed Precip Events Conditions
12:15 AM 48.2 °F - 39.2 °F 71% 30.10 in 10.0 mi SE 5.8 mph - N/A   Clear
12:35 AM 48.2 °F - 39.2 °F 71% 30.09 in 10.0 mi SE 5.8 mph - N/A   Clear
12:55 AM 48.2 °F - 41.0 °F 76% 30.09 in 10.0 mi SSE 6.9 mph - N/A   Clear
1:15 AM 48.2 °F - 39.2 °F 71% 30.09 in 10.0 mi SSE 6.9 mph - N/A   Clear
1:35 AM 46.4 °F 42.4 °F 41.0 °F 81% 30.08 in 10.0 mi SSE 8.1 mph - N/A   Clear
1:55 AM 46.4 °F 42.4 °F 39.2 °F 76% 30.08 in 10.0 mi SSE 8.1 mph - N/A   Clear
2:15 AM 46.4 °F 42.4 °F 39.2 °F 76% 30.07 in 10.0 mi SSE 8.1 mph - N/A   Clear
2:35 AM 48.2 °F - 39.2 °F 71% 30.06 in 10.0 mi SSE 9.2 mph - N/A   Clear
2:55 AM 48.2 °F - 39.2 °F 71% 30.06 in 10.0 mi SSE 10.4 mph - N/A   Partly Cloudy
3:15 AM 48.2 °F - 41.0 °F 76% 30.05 in 10.0 mi SSE 10.4 mph - N/A   Scattered Clouds
3:35 AM 50.0 °F - 41.0 °F 71% 30.04 in 10.0 mi SSE 10.4 mph - N/A   Clear
3:55 AM 50.0 °F - 39.2 °F 66% 30.02 in 10.0 mi SSE 12.7 mph - N/A   Clear
4:15 AM 51.8 °F - 39.2 °F 62% 30.02 in 10.0 mi South 11.5 mph - N/A   Clear
4:35 AM 50.0 °F - 41.0 °F 71% 30.03 in 10.0 mi South 9.2 mph - N/A   Mostly Cloudy
4:55 AM 51.8 °F - 41.0 °F 67% 30.04 in 10.0 mi South 11.5 mph - N/A   Overcast
5:15 AM 51.8 °F - 41.0 °F 67% 30.04 in 10.0 mi South 12.7 mph - N/A   Mostly Cloudy
5:35 AM 51.8 °F - 41.0 °F 67% 30.02 in 10.0 mi South 12.7 mph - N/A   Mostly Cloudy
5:55 AM 51.8 °F - 41.0 °F 67% 30.02 in 10.0 mi South 13.8 mph - N/A   Partly Cloudy
6:15 AM 51.8 °F - 41.0 °F 67% 30.02 in 10.0 mi South 12.7 mph - N/A   Clear
6:35 AM 53.6 °F - 42.8 °F 67% 30.01 in 10.0 mi South 11.5 mph - N/A   Clear
6:55 AM 53.6 °F - 42.8 °F 67% 30.02 in 10.0 mi South 12.7 mph - N/A   Mostly Cloudy
7:15 AM 53.6 °F - 42.8 °F 67% 30.04 in 10.0 mi South 15.0 mph - N/A   Overcast
7:35 AM 53.6 °F - 42.8 °F 67% 30.02 in 10.0 mi South 13.8 mph - N/A   Mostly Cloudy
7:55 AM 55.4 °F - 42.8 °F 63% 30.02 in 10.0 mi South 12.7 mph - N/A   Clear
8:15 AM 55.4 °F - 44.6 °F 67% 30.01 in 10.0 mi South 13.8 mph - N/A   Clear
8:35 AM 57.2 °F - 44.6 °F 63% 30.02 in 10.0 mi South 15.0 mph - N/A   Clear
8:55 AM 57.2 °F - 44.6 °F 63% 30.01 in 10.0 mi South 15.0 mph - N/A   Clear
9:15 AM 59.0 °F - 46.4 °F 63% 30.01 in 10.0 mi South 13.8 mph - N/A   Clear
9:35 AM 60.8 °F - 46.4 °F 59% 30.01 in 10.0 mi South 16.1 mph - N/A   Partly Cloudy
9:55 AM 60.8 °F - 46.4 °F 59% 30.01 in 10.0 mi South 12.7 mph - N/A   Scattered Clouds
10:15 AM 62.6 °F - 46.4 °F 55% 30.00 in 10.0 mi South 15.0 mph 19.6 mph N/A   Partly Cloudy
10:35 AM 64.4 °F - 46.4 °F 52% 30.01 in 10.0 mi SSW 18.4 mph - N/A   Clear
11:15 AM 64.4 °F - 48.2 °F 56% 30.00 in 10.0 mi SSW 15.0 mph - N/A   Partly Cloudy
11:35 AM 66.2 °F - 48.2 °F 52% 29.99 in 10.0 mi SSW 16.1 mph - N/A   Partly Cloudy
11:55 AM 66.2 °F - 48.2 °F 52% 29.98 in 10.0 mi SSW 17.3 mph 23.0 mph N/A   Partly Cloudy
12:15 PM - - - N/A% 29.97 in 10.0 mi SSW 16.1 mph 23.0 mph N/A   Mostly Cloudy
12:35 PM 66.2 °F - 50.0 °F 56% 29.96 in 10.0 mi SSW 13.8 mph - N/A   Partly Cloudy
12:55 PM 66.2 °F - 50.0 °F 56% 29.95 in 10.0 mi SSW 19.6 mph 24.2 mph N/A   Partly Cloudy
1:15 PM 66.2 °F - 51.8 °F 60% 29.94 in 10.0 mi SSW 17.3 mph 26.5 mph N/A   Scattered Clouds
1:35 PM 66.2 °F - 51.8 °F 60% 29.93 in 10.0 mi SSW 18.4 mph 24.2 mph N/A   Scattered Clouds
1:55 PM - - - N/A% 29.93 in 10.0 mi SW 20.7 mph 27.6 mph N/A   Mostly Cloudy
2:15 PM 60.8 °F - 53.6 °F 77% 29.96 in 9.0 mi SW 23.0 mph 36.8 mph 0.06 in   Overcast
2:35 PM 57.2 °F - 53.6 °F 88% 29.95 in 8.0 mi SW 19.6 mph 28.8 mph 0.08 in   Mostly Cloudy
2:55 PM 57.2 °F - 53.6 °F 88% 29.95 in 10.0 mi SSW 13.8 mph - 0.09 in   Overcast
3:15 PM 57.2 °F - 53.6 °F 88% 29.93 in 9.0 mi SW 12.7 mph - 0.01 in   Overcast
3:35 PM 57.2 °F - 53.6 °F 88% 29.92 in 10.0 mi SSW 9.2 mph - 0.02 in   Overcast
3:55 PM 57.2 °F - 53.6 °F 88% 29.91 in 8.0 mi SSW 9.2 mph - 0.02 in   Overcast
4:15 PM 57.2 °F - 55.4 °F 94% 29.91 in 7.0 mi SSW 6.9 mph - 0.02 in   Mostly Cloudy
4:35 PM 57.2 °F - 55.4 °F 94% 29.89 in 8.0 mi SSW 4.6 mph - 0.04 in   Overcast
4:55 PM 57.2 °F - 55.4 °F 94% 29.89 in 7.0 mi SSW 5.8 mph - 0.05 in   Overcast
5:15 PM 57.2 °F - 55.4 °F 94% 29.88 in 5.0 mi SSW 4.6 mph - 0.01 in   Overcast
5:35 PM 57.2 °F - 55.4 °F 94% 29.86 in 5.0 mi SSE 5.8 mph - 0.04 in   Overcast
5:55 PM 57.2 °F - 55.4 °F 94% 29.86 in 4.0 mi South 5.8 mph - 0.07 in   Overcast
6:15 PM 57.2 °F - 55.4 °F 94% 29.84 in 4.0 mi SSE 8.1 mph - N/A   Overcast
6:35 PM 57.2 °F - 55.4 °F 94% 29.84 in 3.0 mi SSE 6.9 mph - 0.02 in   Mostly Cloudy
6:55 PM 57.2 °F - 55.4 °F 94% 29.83 in 3.0 mi SE 5.8 mph - 0.06 in   Overcast
7:15 PM 55.4 °F - 55.4 °F 100% 29.81 in 3.0 mi SE 8.1 mph - N/A   Overcast
7:35 PM 55.4 °F - 53.6 °F 94% 29.82 in 3.0 mi SSE 8.1 mph - N/A   Overcast
7:55 PM 57.2 °F - 55.4 °F 94% 29.81 in 4.0 mi South 9.2 mph - 0.09 in   Overcast
8:15 PM 57.2 °F - 55.4 °F 94% 29.81 in 5.0 mi South 8.1 mph - 0.10 in   Overcast
8:35 PM 57.2 °F - 55.4 °F 94% 29.81 in 5.0 mi South 8.1 mph - 0.22 in   Overcast
8:55 PM 57.2 °F - 55.4 °F 94% 29.80 in 5.0 mi South 8.1 mph - 0.34 in   Overcast
9:15 PM 57.2 °F - 55.4 °F 94% 29.80 in 5.0 mi SSW 8.1 mph - 0.05 in   Overcast
9:35 PM 57.2 °F - 55.4 °F 94% 29.80 in 5.0 mi South 10.4 mph - 0.20 in   Overcast
9:55 PM 57.2 °F - 55.4 °F 94% 29.81 in 5.0 mi West 6.9 mph - 0.30 in   Mostly Cloudy
10:15 PM 53.6 °F - 50.0 °F 88% 29.81 in 7.0 mi NW 15.0 mph 18.4 mph 0.11 in   Overcast
10:35 PM 48.2 °F - 46.4 °F 93% 29.81 in 10.0 mi NNW 18.4 mph - 0.13 in   Overcast
10:55 PM 46.4 °F 40.4 °F 44.6 °F 93% 29.80 in 10.0 mi North 13.8 mph - 0.18 in   Overcast
11:15 PM 46.4 °F 41.9 °F 44.6 °F 93% 29.82 in 10.0 mi North 9.2 mph - 0.04 in   Overcast
11:35 PM 46.4 °F 41.9 °F 44.6 °F 93% 29.81 in 10.0 mi North 9.2 mph - 0.06 in   Overcast
11:55 PM 46.4 °F 39.8 °F 42.8 °F 87% 29.81 in 10.0 mi North 16.1 mph - 0.09 in   Overcast